Location: Newark
(36.0797°N, 3.9744°E)
Time: 20:36:11
(UTC+00:00)

Vanguard 2 Rocket - Pass Details

Date: 17 December 2019
Orbit: 554 x 3326 km, 32.9° (Epoch: 26 January)

Event Time Altitude Azimuth Distance (km) Brightness Sun altitude
Rises 19:55:37 0° 279° (W) 6,331 12.0 -40.3°
Reaches altitude 10° 20:00:32 10° 276° (W) 4,893 11.2 -41.3°
Enters shadow 20:11:19 51° 231° (SW) 1,901 8.5 -43.5°
Maximum altitude 20:12:40 55° 204° (SSW) 1,730 - -43.7°
Drops below altitude 10° 20:19:29 10° 128° (SE) 2,825 - -45.1°
Sets 20:21:37 0° 123° (ESE) 3,535 - -45.5°
